User: anonymous   Login
Location: Unspecified
(0.0000°N, 0.0000°E)
Time: 03:40:23
(UTC+00:00)
Language:

CICERO 6 - Orbit

View from above orbital plane
View from above orbital plane
View from above satellite
View from above satellite

Ground track
Ground track

The orbit data is extracted from the following two-line orbital elements,

1 42793U 17036AE  17265.71131869  .00001159  00000-0  54992-4 0  9998
2 42793  97.4400 324.4295 0009244 300.1629  59.8690 15.21234123 13926
Epoch (UTC): 22 September 2017 17:04:17
Eccentricity: 0.0009244
inclination: 97.4400°
perigee height: 496 km
apogee height: 508 km
right ascension of ascending node: 324.4295°
argument of perigee: 300.1629°
revolutions per day: 15.21234123
mean anomaly at epoch: 59.8690°
orbit number at epoch: 1392

The dashed part of the orbit path shows where the satellite is in the earth's shadow,  

DLR